[[{"header":{"parameterUnit":"m.s-1","parameterCategory":1,"la1":30.2991,"la2":30.254,"lo1":-89.0895,"lo2":-89.0444,"dy":0.0017,"dx":0.0017,"nx":28,"ny":28,"refTime":"2023-10-07T21:00:00:Z","depth":0,"parameterNumber":2,"parameterNumberName":"U-component_of_WINDS"},"data":[0,0,0,0,0,0,0,0,0,0,0,0,0,0,0,0,0,0,0,0,0,0,0,0,0,0,0,0,0,0,0,0,0,0,0,0,0,0,0,0,0,0,0,0,0,0,0,0,0,0,0,0,0,0,0,0,0,0,-0.564,-0.564,0,-0.5628,-0.5628,-0.5628,-0.5587,-0.5587,-0.5586,-0.5585,-0.5574,-0.5574,-0.5575,0,0,0,0,0,0,0,0,0,0,0,0,0,-0.5629,-0.5629,-0.564,-0.564,-0.564,-0.5628,-0.5628,-0.5628,-0.5588,-0.5586,-0.5585,-0.5584,-0.5573,-0.5574,-0.5575,0,0,0,0,0,0,0,0,0,0,0,0,0,-0.5627,-0.5629,-0.564,-0.5618,-0.5616,-0.5628,-0.5628,-0.5628,-0.5588,-0.5586,-0.5585,-0.5584,-0.5573,-0.5574,-0.5575,-0.5607,0,0,-0.5577,-0.5578,0,0,0,0,0,0,0,0,-0.5627,-0.5627,-0.5622,-0.562,-0.5617,-0.5608,-0.562,-0.5621,-0.5588,-0.5599,-0.5585,-0.5583,-0.5586,-0.5586,-0.5587,-0.5607,-0.5606,-0.5577,-0.5578,-0.5578,-0.5579,0,0,0,0,0,0,0,-0.5627,-0.5628,-0.5635,-0.5622,-0.5619,-0.5609,-0.5607,-0.562,-0.56,-0.5598,-0.5595,-0.5594,-0.5585,-0.5586,-0.5586,-0.5606,-0.5577,-0.5578,-0.5579,-0.5579,-0.5652,-0.5654,0,0,0,0,0,0,-0.563,-0.5628,-0.5636,-0.5635,-0.5619,-0.5611,-0.5609,-0.5612,-0.56,-0.5597,-0.5595,-0.5592,-0.5585,-0.5585,-0.5586,-0.5623,-0.5578,-0.5579,-0.558,-0.5651,-0.5653,-0.5654,0,0,0,0,0,0,-0.563,-0.5631,-0.5636,-0.5631,-0.563,-0.5612,-0.5617,-0.5613,-0.5614,-0.5598,-0.5594,-0.56,-0.5584,-0.5584,-0.5602,-0.5622,-0.5579,-0.558,-0.5649,-0.5651,-0.5653,-0.5699,0,0,0,0,0,0,-0.563,-0.5632,-0.5644,-0.5631,-0.5631,-0.5653,-0.5618,-0.5614,-0.5615,-0.5611,-0.5601,-0.5599,-0.5583,-0.5601,-0.5603,-0.5623,-0.5581,-0.5647,-0.565,-0.5653,-0.5695,-0.5702,-0.5708,0,0,0,0,0,-0.563,-0.5657,-0.5644,-0.5646,-0.5646,-0.5654,-0.5654,-0.5636,-0.5617,-0.5629,-0.5619,-0.5599,-0.5619,-0.5603,-0.5605,-0.5625,-0.5646,-0.5649,-0.5653,-0.5693,-0.5701,-0.5708,0,0,0,0,0,0,-0.5673,-0.5655,-0.5641,-0.5665,-0.5661,-0.5647,-0.5662,-0.5645,-0.5647,-0.5643,-0.562,-0.5618,-0.5639,-0.5634,-0.5616,-0.5656,-0.5629,-0.5633,-0.5659,-0.5667,-0.5673,-0.5675,-0.5582,0,0,0,0,0,-0.5685,-0.5693,-0.5677,-0.57,-0.5699,-0.5681,-0.5684,-0.567,-0.5665,-0.5664,-0.5655,-0.5651,-0.5657,-0.5661,-0.5666,-0.5694,-0.5691,-0.5708,-0.5715,-0.572,-0.5724,-0.5739,-0.5747,-0.5665,-0.5665,-0.5665,0,0,-0.5711,-0.5702,-0.5709,-0.5708,-0.5704,-0.5713,-0.568,-0.5691,-0.5698,-0.5665,-0.5682,-0.5675,-0.567,-0.5693,-0.5703,-0.5689,-0.5746,-0.5724,-0.5729,-0.573,-0.5743,-0.5751,-0.5758,-0.5667,-0.5667,-0.5666,0,0,-0.5762,-0.5756,-0.5775,-0.5771,-0.5764,-0.5752,-0.5756,-0.5745,-0.5739,-0.5755,-0.5731,-0.5738,-0.5748,-0.5746,-0.5746,-0.5796,-0.5778,-0.5798,-0.5831,-0.5846,-0.5853,-0.5858,-0.5877,-0.5884,-0.5801,-0.5801,-0.5802,0,-0.5795,-0.5808,-0.5787,-0.5799,-0.58,-0.577,-0.5789,-0.5786,-0.5782,-0.5783,-0.5767,-0.578,-0.5774,-0.5796,-0.5809,-0.5809,-0.5814,-0.5799,-0.5853,-0.5859,-0.5864,-0.5881,-0.5888,-0.5804,-0.5804,-0.5803,-0.5803,0,-0.5849,-0.5859,-0.5874,-0.587,-0.5873,-0.5889,-0.5869,-0.5874,-0.586,-0.5849,-0.5866,-0.5858,-0.586,-0.5864,-0.585,-0.5885,-0.5876,-0.5857,-0.583,-0.5874,-0.5891,-0.5897,-0.5808,-0.5807,-0.5806,-0.5805,0,0,-0.593,-0.5913,-0.5919,-0.5917,-0.5907,-0.5914,-0.5928,-0.593,-0.5935,-0.5932,-0.5944,-0.5953,-0.5935,-0.5936,-0.5921,-0.5934,-0.5975,-0.5913,-0.5912,-0.5926,-0.6013,-0.6029,-0.6037,-0.5962,-0.5963,-0.5964,-0.6014,0,-0.598,-0.6003,-0.5984,-0.6011,-0.602,-0.5991,-0.6003,-0.5999,-0.5989,-0.5995,-0.5984,-0.5991,-0.5966,-0.5966,-0.5978,-0.5967,-0.5992,-0.5963,-0.5974,-0.5974,-0.5978,-0.6045,-0.6062,-0.611,-0.602,-0.6021,-0.6022,0,-0.6042,-0.6042,-0.607,-0.6058,-0.6061,-0.6072,-0.6072,-0.6078,-0.6072,-0.6064,-0.6064,-0.6045,-0.6059,-0.6031,-0.605,-0.6031,-0.6034,-0.6029,-0.6031,-0.6032,-0.6002,-0.605,-0.6124,-0.6132,-0.6032,-0.6031,-0.603,0,-0.6099,-0.6106,-0.6123,-0.6122,-0.6108,-0.6117,-0.6112,-0.6105,-0.6107,-0.6107,-0.6108,-0.611,-0.6111,-0.6113,-0.6096,-0.6077,-0.6117,-0.6088,-0.6112,-0.6112,-0.6123,-0.6123,-0.62,-0.6122,-0.6122,-0.6122,-0.6122,0,-0.6158,-0.6176,-0.6149,-0.616,-0.618,-0.6157,-0.6178,-0.6169,-0.6163,-0.6172,-0.6147,-0.6156,-0.6132,-0.6139,-0.6125,-0.6143,-0.6143,-0.6138,-0.6134,-0.6141,-0.6142,-0.6144,-0.6141,-0.6124,-0.6124,-0.6123,-0.6123,0,-0.6226,-0.6208,-0.6226,-0.6211,-0.6207,-0.6223,-0.621,-0.622,-0.6208,-0.622,-0.6222,-0.6203,-0.621,-0.6192,-0.6196,-0.6187,-0.6214,-0.6204,-0.6216,-0.6213,-0.6239,-0.6237,-0.6322,-0.6332,-0.6246,-0.6247,-0.6248,0,-0.6265,-0.6279,-0.6265,-0.627,-0.6266,-0.6273,-0.6275,-0.6252,-0.6255,-0.6249,-0.626,-0.6265,-0.6267,-0.6279,-0.6267,-0.627,-0.6261,-0.629,-0.6261,-0.6268,-0.6263,-0.6263,-0.6265,-0.6297,-0.6298,-0.6298,-0.6299,0,-0.6338,-0.6328,-0.6332,-0.6333,-0.6336,-0.6335,-0.6333,-0.6338,-0.6314,-0.6319,-0.6325,-0.6327,-0.6331,-0.6336,-0.6336,-0.6331,-0.6312,-0.6308,-0.6314,-0.6322,-0.6329,-0.6327,-0.6234,-0.6307,-0.6306,-0.6305,-0.6305,-0.6305,-0.6394,-0.6405,-0.6397,-0.6402,-0.6397,-0.6396,-0.6405,-0.6393,-0.6398,-0.6399,-0.6385,-0.6395,-0.6388,-0.6386,-0.6383,-0.639,-0.6377,-0.6386,-0.6388,-0.6391,-0.6396,-0.6326,-0.639,-0.639,-0.639,-0.6389,-0.6389,0,-0.6466,-0.6459,-0.6464,-0.6462,-0.6466,-0.6445,-0.6442,-0.6447,-0.6455,-0.645,-0.6453,-0.6461,-0.6465,-0.6452,-0.6455,-0.6464,-0.6455,-0.6465,-0.6466,-0.6465,-0.6407,-0.6402,-0.6472,-0.6472,-0.6472,-0.6472,-0.6472,-0.6472,-0.6505,-0.6522,-0.6511,-0.6527,-0.6519,-0.6528,-0.6528,-0.6527,-0.6523,-0.6532,-0.6535,-0.6527,-0.6519,-0.6521,-0.6524,-0.652,-0.6523,-0.6537,-0.6531,-0.6477,-0.6469,-0.6461,-0.6457,-0.6538,-0.6538,-0.6588,-0.6589,-0.6589]},{"header":{"parameterUnit":"m.s-1","parameterCategory":1,"la1":30.2991,"la2":30.254,"lo1":-89.0895,"lo2":-89.0444,"dy":0.0017,"dx":0.0017,"nx":28,"ny":28,"refTime":"2023-10-07T21:00:00:Z","depth":0,"parameterNumber":3,"parameterNumberName":"V-component_of_WINDS"},"data":[0,0,0,0,0,0,0,0,0,0,0,0,0,0,0,0,0,0,0,0,0,0,0,0,0,0,0,0,0,0,0,0,0,0,0,0,0,0,0,0,0,0,0,0,0,0,0,0,0,0,0,0,0,0,0,0,0,0,-2.8121,-2.8122,0,-2.8178,-2.8178,-2.8179,-2.8178,-2.8177,-2.8177,-2.8176,-2.8232,-2.8234,-2.8237,0,0,0,0,0,0,0,0,0,0,0,0,0,-2.8013,-2.8015,-2.8121,-2.8122,-2.8123,-2.8177,-2.8178,-2.8179,-2.8178,-2.8177,-2.8176,-2.8176,-2.8232,-2.8234,-2.8237,0,0,0,0,0,0,0,0,0,0,0,0,0,-2.8063,-2.8015,-2.8121,-2.8129,-2.813,-2.8177,-2.8178,-2.8179,-2.8178,-2.8177,-2.8176,-2.8175,-2.8231,-2.8234,-2.8237,-2.828,0,0,-2.8247,-2.8249,0,0,0,0,0,0,0,0,-2.8061,-2.8067,-2.8127,-2.8128,-2.813,-2.817,-2.8161,-2.8213,-2.8179,-2.816,-2.8176,-2.8175,-2.8212,-2.8217,-2.823,-2.8283,-2.8285,-2.8248,-2.825,-2.8251,-2.8252,0,0,0,0,0,0,0,-2.8057,-2.8065,-2.8143,-2.8128,-2.813,-2.8129,-2.8135,-2.8171,-2.8192,-2.8162,-2.8162,-2.8168,-2.8213,-2.8227,-2.8231,-2.8286,-2.8247,-2.825,-2.8252,-2.8254,-2.8379,-2.838,0,0,0,0,0,0,-2.8052,-2.8062,-2.8142,-2.8145,-2.8092,-2.8132,-2.8139,-2.8158,-2.8191,-2.8195,-2.8169,-2.8168,-2.8222,-2.8228,-2.8233,-2.8288,-2.8251,-2.8254,-2.8256,-2.8378,-2.8379,-2.8381,0,0,0,0,0,0,-2.805,-2.8059,-2.8139,-2.8104,-2.8114,-2.8135,-2.8157,-2.816,-2.8174,-2.8197,-2.8201,-2.818,-2.8221,-2.8229,-2.8269,-2.829,-2.8256,-2.8259,-2.8376,-2.8378,-2.838,-2.8396,0,0,0,0,0,0,-2.8047,-2.8058,-2.8075,-2.8104,-2.8116,-2.8174,-2.8158,-2.8162,-2.818,-2.8179,-2.8208,-2.8212,-2.8221,-2.8264,-2.8272,-2.8294,-2.8261,-2.8375,-2.8377,-2.838,-2.8394,-2.8399,-2.8402,0,0,0,0,0,-2.8043,-2.8076,-2.8076,-2.8085,-2.8137,-2.8175,-2.8182,-2.8192,-2.8181,-2.8198,-2.8214,-2.8211,-2.8286,-2.8268,-2.8278,-2.83,-2.8373,-2.8376,-2.8379,-2.8392,-2.8398,-2.8402,0,0,0,0,0,0,-2.8048,-2.808,-2.808,-2.8124,-2.8147,-2.8175,-2.8197,-2.8197,-2.8224,-2.8222,-2.8233,-2.8239,-2.828,-2.8294,-2.8274,-2.8345,-2.8328,-2.8333,-2.8335,-2.834,-2.8344,-2.8341,-2.8264,0,0,0,0,0,-2.8054,-2.8083,-2.8109,-2.8145,-2.8157,-2.8175,-2.8192,-2.8198,-2.8223,-2.8232,-2.825,-2.8274,-2.8303,-2.8322,-2.835,-2.8395,-2.8403,-2.8416,-2.842,-2.8423,-2.8428,-2.8456,-2.8462,-2.8391,-2.8391,-2.8391,0,0,-2.8067,-2.8088,-2.8106,-2.8147,-2.8166,-2.8196,-2.8183,-2.8215,-2.8238,-2.8237,-2.8277,-2.8291,-2.8318,-2.8362,-2.8382,-2.8375,-2.8449,-2.8427,-2.843,-2.8433,-2.8459,-2.8466,-2.8472,-2.8393,-2.8393,-2.8392,0,0,-2.8107,-2.8125,-2.8159,-2.8178,-2.8207,-2.8219,-2.8227,-2.8256,-2.8266,-2.8306,-2.8307,-2.8334,-2.8383,-2.8403,-2.842,-2.8469,-2.8468,-2.8477,-2.85,-2.8527,-2.8533,-2.8538,-2.8558,-2.8565,-2.8482,-2.8482,-2.8482,0,-2.812,-2.8166,-2.8176,-2.8209,-2.8228,-2.8229,-2.8264,-2.8281,-2.8318,-2.8331,-2.8322,-2.8386,-2.8403,-2.8453,-2.8466,-2.8478,-2.8489,-2.8475,-2.8531,-2.8536,-2.8541,-2.8561,-2.8568,-2.8483,-2.8483,-2.8483,-2.8483,0,-2.8181,-2.8213,-2.8236,-2.8273,-2.8295,-2.8328,-2.8344,-2.8364,-2.8368,-2.8381,-2.8423,-2.8445,-2.8479,-2.849,-2.8494,-2.8541,-2.8536,-2.8529,-2.8513,-2.8549,-2.8568,-2.8575,-2.8485,-2.8484,-2.8484,-2.8483,0,0,-2.8226,-2.8269,-2.8278,-2.8296,-2.8328,-2.8353,-2.8387,-2.8421,-2.8439,-2.8464,-2.8494,-2.8536,-2.8531,-2.8549,-2.8555,-2.8578,-2.862,-2.8569,-2.857,-2.858,-2.8676,-2.8683,-2.8692,-2.8618,-2.862,-2.8621,-2.8675,0,-2.8272,-2.8334,-2.8344,-2.8398,-2.8429,-2.8431,-2.846,-2.8484,-2.8497,-2.8525,-2.8539,-2.857,-2.8559,-2.8571,-2.8593,-2.861,-2.8639,-2.8605,-2.8648,-2.8649,-2.8644,-2.8701,-2.8708,-2.8758,-2.8682,-2.8683,-2.8684,0,-2.8333,-2.8362,-2.8419,-2.845,-2.8463,-2.849,-2.8523,-2.8549,-2.8576,-2.8584,-2.8606,-2.861,-2.8646,-2.8627,-2.8678,-2.8655,-2.8672,-2.8683,-2.8685,-2.8691,-2.867,-2.8711,-2.8774,-2.8782,-2.8695,-2.8694,-2.8693,0,-2.8364,-2.8417,-2.8459,-2.8473,-2.8509,-2.8528,-2.8544,-2.857,-2.859,-2.8619,-2.8632,-2.8664,-2.8682,-2.8706,-2.8719,-2.8703,-2.877,-2.8751,-2.8779,-2.8779,-2.8794,-2.8794,-2.8864,-2.8801,-2.8801,-2.8801,-2.8801,0,-2.8416,-2.8451,-2.8473,-2.8499,-2.854,-2.8551,-2.8591,-2.8606,-2.863,-2.8659,-2.8661,-2.8689,-2.8702,-2.8732,-2.8742,-2.8784,-2.8791,-2.88,-2.8802,-2.8801,-2.88,-2.8814,-2.8812,-2.8803,-2.8803,-2.8802,-2.8802,0,-2.8458,-2.8473,-2.852,-2.8551,-2.8559,-2.8588,-2.8615,-2.864,-2.8653,-2.8691,-2.87,-2.8721,-2.8756,-2.877,-2.8813,-2.8819,-2.8869,-2.8867,-2.886,-2.8862,-2.889,-2.8888,-2.8973,-2.8986,-2.8913,-2.8913,-2.8914,0,-2.8491,-2.8519,-2.8553,-2.8574,-2.859,-2.8623,-2.8644,-2.8656,-2.8678,-2.8712,-2.8734,-2.877,-2.8799,-2.8855,-2.8874,-2.8907,-2.8909,-2.8936,-2.8914,-2.8912,-2.8912,-2.8912,-2.8916,-2.8941,-2.8942,-2.8942,-2.8943,0,-2.8548,-2.8555,-2.8586,-2.8621,-2.8646,-2.8674,-2.87,-2.8717,-2.8733,-2.8758,-2.8795,-2.8818,-2.8862,-2.8898,-2.8933,-2.8949,-2.895,-2.8949,-2.8958,-2.8958,-2.8955,-2.896,-2.8875,-2.8948,-2.8947,-2.8947,-2.8947,-2.8946,-2.8589,-2.8615,-2.8644,-2.8679,-2.8701,-2.8726,-2.8752,-2.8769,-2.88,-2.8839,-2.8844,-2.8884,-2.8911,-2.8958,-2.8976,-2.9008,-2.9001,-2.9012,-2.9016,-2.9019,-2.9023,-2.8947,-2.9013,-2.9013,-2.9013,-2.9013,-2.9013,0,-2.8649,-2.8669,-2.87,-2.8739,-2.8767,-2.8764,-2.8794,-2.8818,-2.8853,-2.8879,-2.8909,-2.8952,-2.8987,-2.9009,-2.9044,-2.9066,-2.9067,-2.9075,-2.9075,-2.9079,-2.9025,-2.9016,-2.9074,-2.9074,-2.9074,-2.9073,-2.9073,-2.9073,-2.8684,-2.8729,-2.874,-2.8796,-2.8814,-2.8854,-2.8872,-2.8896,-2.8917,-2.8966,-2.8995,-2.9009,-2.9034,-2.9072,-2.9105,-2.911,-2.9124,-2.9133,-2.9139,-2.9089,-2.9082,-2.9077,-2.9068,-2.9135,-2.9136,-2.919,-2.9191,-2.9191]}]]